Location: Arborea
(39.7744°N, 8.5819°E)
Time: 16:19:54
(UTC+00:00)

Cosmos 332 Rocket - Pass Details

Date: 29 May 2022
Orbit: 681 x 703 km, 74.0° (Epoch: 29 June)

Event Time Altitude Azimuth Distance (km) Brightness Sun altitude
Exits shadow 23:50:42 60° 24° (NNE) 779 4.2 -28.2°
Drops below altitude 10° 23:54:38 10° 20° (NNE) 2,129 7.2 -28.1°
Sets 23:56:56 0° 20° (NNE) 3,049 8.3 -28.0°
